Regional Weather Roundup
Issued by NWS

Home | Current Version | Previous Version | Graphics & Text | Print | Product List | Glossary On
Versions: 1 2 3 4 5 6 7 8 9 10 11 12 13 14 15 16 17 18 19 20 21 22 23 24 25 26 27 28 29 30 31 32 33 34 35 36 37 38 39 40 41 42 43 44 45 46 47 48 49 50
000
ASUS45 KCYS 280410
RWRWY

WYOMING REGIONAL WEATHER ROUNDUP
NATIONAL WEATHER SERVICE CHEYENNE WY
1000 PM MDT FRI MAR 27 2015

NOTE:  "FAIR" INDICATES FEW OR NO CLOUDS BELOW 12,000 FEET
WITH NO SIGNIFICANT WEATHER AND/OR OBSTRUCTIONS TO VISIBILITY.

WYZ001-280500-
YELLOWSTONE NATIONAL PARK

CITY           SKY/WX    TMP DP  RH WIND       PRES   REMARKS
LK YELLOWSTONE   N/A     31  26  82 CALM      30.25F
W YELLOWSTONE  NOT AVBL

$$
WYZ002>013-054>058-071-098>099-280500-
NORTHERN WYOMING

CITY           SKY/WX    TMP DP  RH WIND       PRES   REMARKS
JACKSON        FAIR      37  34  87 CALM      30.21R
CODY           FAIR      61  28  29 NW9       30.06F
GREYBULL       FAIR      55  30  38 SE6       30.00R
WORLAND        FAIR      52  32  46 S10       30.02R
SHERIDAN       FAIR      57  28  33 W14       29.97S
BUFFALO        FAIR      52  26  36 SW6       30.03S
GILLETTE       FAIR      43  34  70 S9        29.99S
HULETT         FAIR      46  32  57 S8        30.00R
NEWCASTLE      FAIR      43  30  61 CALM      30.00S

$$
WYZ014>020-022>026-101>103-280500-
CENTRAL WYOMING

CITY           SKY/WX    TMP DP  RH WIND       PRES   REMARKS
BIG PINEY      FAIR      38  24  57 S5        30.25R WCI  34
PINEDALE       MOCLDY    37  30  75 NW6       30.26S WCI  33
DUBOIS         FAIR      43  28  56 NW8       30.21R
LANDER         FAIR      53  23  31 W12       30.12R
RIVERTON       FAIR      55  27  34 NW14      30.11R
CASPER         FAIR      41  26  55 CALM      30.09S
DOUGLAS        FAIR      48  26  42 W10       30.07R

$$
WYZ021-027>030-104>119-280500-
SOUTHERN WYOMING

CITY           SKY/WX    TMP DP  RH WIND       PRES   REMARKS
EVANSTON       FAIR      47  26  44 S6        30.27R
KEMMERER       FAIR      45  30  57 W6        30.28S
ROCK SPRINGS   FAIR      50  25  37 NW5       30.23R
DIXON          MOCLDY    41  28  59 NE3       30.24R
RAWLINS        FAIR      49  21  33 NW12      30.18R
SARATOGA       FAIR      46  23  39 CALM      30.20S
LARAMIE        FAIR      43  22  43 SW6       30.20R
CHEYENNE       FAIR      47  24  40 W8        30.13S
TORRINGTON     FAIR      55  26  32 NW8       30.02S
PINE BLUFFS    FAIR      39  28  65 W9        30.09S WCI  33

$$


USA.gov is the U.S. government's official web portal to all federal, state and local government web resources and services.